Date_and_time,latitude,longitude,wind_speed,RelWindDirFrom,WindDirFrom,air_pressure,air_temperature,relative_humidity,Temp,platform_speed_wrt_ground,air_pressure_at_mean_sea_level,platform_orientation
2018-08-14 23:50,53.2070816666667,-98.6180833333333,19.6,22.3,158,986.27,14.2,70,18.13,3.5,1012.70,152.7
2018-08-15 00:00,53.2039683333333,-98.6156433333333,17.9,23.2,159,986.49,14.2,71,18.13,1.2,1012.93,155.5
2018-08-15 00:10,53.2039583333333,-98.6157516666667,17.4,21.0,161,986.36,14.2,72,18.14,0.0,1012.80,155.5
2018-08-15 00:20,53.2039766666667,-98.61569,18.1,22.4,160,986.15,14.3,72,18.13,0.0,1012.57,155.5
2018-08-15 00:30,53.2040166666667,-98.6155633333333,17.6,21.5,165,986.09,14.5,71,18.12,0.0,1012.50,155.5
2018-08-15 00:40,53.2002566666667,-98.615365,19.3,30.8,168,985.81,14.6,72,18.13,1.4,1012.20,155.5
2018-08-15 00:50,53.1702566666667,-98.607595,29.5,32.9,165,984.36,14.6,72,18.13,10.9,1010.72,155.5
2018-08-15 01:00,53.14027,-98.6005783333333,28.7,31.6,168,984.38,14.9,72,18.14,10.9,1010.73,159.9
2018-08-15 01:10,53.110315,-98.5930266666667,28.6,31.8,166,984.34,14.9,72,18.27,10.9,1010.69,159.9
2018-08-15 01:20,53.080305,-98.58587,27.6,31.1,168,984.44,15.0,72,18.45,10.9,1010.79,159.9
2018-08-15 01:30,53.0687916666667,-98.584955,19.9,29.9,172,985.31,15.1,71,18.79,4.1,1011.67,159.9
2018-08-15 01:40,53.0691366666667,-98.584385,14.3,19.1,171,985.76,15.0,72,18.88,0.2,1012.13,159.9
2018-08-15 01:50,53.069155,-98.5844183333333,13.4,17.9,176,985.65,15.0,72,18.90,0.0,1012.02,159.9
2018-08-15 02:00,53.06913,-98.584355,14.1,18.2,176,985.57,15.0,72,18.90,0.0,1011.95,166.0
2018-08-15 02:10,53.069155,-98.5842483333333,13.1,16.1,177,985.59,15.0,73,18.90,0.0,1011.96,166.0
2018-08-15 02:20,53.0691683333333,-98.58417,13.1,16.5,179,985.51,15.1,73,18.89,0.0,1011.86,166.0
2018-08-15 02:30,53.069165,-98.5842783333333,13.0,16.2,181,985.57,15.1,73,18.88,0.0,1011.92,166.0
2018-08-15 02:40,53.0691416666667,-98.584265,12.1,15.8,183,985.58,15.1,73,18.87,0.0,1011.93,166.0
2018-08-15 02:50,53.06916,-98.5840933333333,12.1,15.7,185,985.56,15.1,72,18.88,0.0,1011.89,166.0
2018-08-15 03:00,53.0691566666667,-98.5842166666667,11.4,15.8,182,985.46,15.1,72,18.86,0.0,1011.79,172.0
2018-08-15 03:10,53.06914,-98.5841933333333,12.2,15.7,184,985.35,15.2,71,18.86,0.0,1011.67,172.0
2018-08-15 03:20,53.0691466666667,-98.5841683333333,12.7,16.9,186,985.21,15.2,70,18.86,0.0,1011.52,172.0
2018-08-15 03:30,53.06916,-98.5841616666667,13.1,16.8,187,985.02,15.2,71,18.86,0.0,1011.33,172.0
2018-08-15 03:40,53.0691633333333,-98.5842533333333,13.2,16.5,187,984.89,15.2,72,18.85,0.0,1011.20,172.0
2018-08-15 03:50,53.0691516666667,-98.5841033333333,12.8,16.6,186,984.93,15.3,71,18.86,0.0,1011.24,172.0
2018-08-15 04:00,53.0691616666667,-98.5840083333333,14.0,17.3,188,984.81,15.2,71,18.85,0.0,1011.11,172.1
2018-08-15 04:10,53.069145,-98.5840833333333,14.4,19.0,189,984.68,15.3,71,18.85,0.0,1010.97,172.1
2018-08-15 04:20,53.06916,-98.58413,14.4,19.0,188,984.56,15.3,71,18.86,0.0,1010.84,172.1
2018-08-15 04:30,53.06917,-98.584135,15.5,20.1,191,984.35,15.3,70,18.85,0.0,1010.63,172.1
2018-08-15 04:40,53.069175,-98.5841966666667,14.7,18.7,193,984.35,15.3,70,18.86,0.0,1010.63,172.1
2018-08-15 04:50,53.0691666666667,-98.58419,14.7,17.8,189,984.21,15.3,70,18.85,0.0,1010.49,172.1
2018-08-15 05:00,53.0691533333333,-98.5840966666667,16.0,19.9,192,984.01,15.3,70,18.85,0.0,1010.28,79.6
2018-08-15 05:10,53.0691466666667,-98.5840666666667,14.9,17.9,193,984.04,15.4,69,18.85,0.0,1010.30,79.6
2018-08-15 05:20,53.0691583333333,-98.5840833333333,15.5,19.4,187,983.92,15.3,72,18.84,0.0,1010.19,79.6
2018-08-15 05:30,53.0691516666667,-98.58409,16.0,19.8,189,983.76,15.2,72,18.84,0.0,1010.02,79.6
2018-08-15 05:40,53.0691516666667,-98.5841383333333,15.8,18.7,187,983.70,15.3,73,18.83,0.0,1009.96,79.6
2018-08-15 05:50,53.06915,-98.5841883333333,16.2,20.6,185,983.65,15.3,73,18.82,0.0,1009.91,79.6
2018-08-15 06:00,53.0691566666667,-98.5841633333333,16.5,20.9,187,983.58,15.4,72,18.81,0.0,1009.83,90.0
2018-08-15 06:10,53.0691766666667,-98.5842416666667,17.2,22.6,188,983.36,15.6,72,18.82,0.0,1009.59,90.0
2018-08-15 06:20,53.0691633333333,-98.5841716666667,17.8,23.2,188,983.33,15.6,72,18.81,0.0,1009.56,90.0
2018-08-15 06:30,53.0691683333333,-98.5841383333333,16.7,20.3,188,983.37,15.6,72,18.80,0.0,1009.61,90.0
2018-08-15 06:40,53.069165,-98.5841433333333,16.6,19.8,189,983.30,15.4,73,18.79,0.0,1009.54,90.0
2018-08-15 06:50,53.0691683333333,-98.5840816666667,17.2,21.1,188,983.19,15.4,74,18.79,0.0,1009.43,90.0
2018-08-15 07:00,53.0691533333333,-98.583955,16.6,20.9,190,983.19,15.3,75,18.79,0.0,1009.43,99.8
2018-08-15 07:10,53.0691533333333,-98.5839866666667,17.0,21.9,191,983.00,15.3,75,18.79,0.0,1009.23,99.8
2018-08-15 07:20,53.069155,-98.5840116666667,16.8,21.7,191,982.95,15.2,77,18.79,0.0,1009.20,99.8
2018-08-15 07:30,53.06914,-98.5839533333333,16.5,21.2,192,982.89,15.2,78,18.78,0.0,1009.14,99.8
2018-08-15 07:40,53.0691516666667,-98.5839733333333,16.0,20.2,192,982.91,15.1,80,18.79,0.0,1009.15,99.8
2018-08-15 07:50,53.0691433333333,-98.5840416666667,16.7,20.9,190,982.67,15.1,81,18.78,0.0,1008.90,99.8
2018-08-15 08:00,53.0691366666667,-98.5840816666667,16.4,21.7,191,982.62,15.0,83,18.77,0.0,1008.85,360.0
2018-08-15 08:10,53.0691466666667,-98.58412,17.1,22.6,191,982.54,15.0,84,18.77,0.0,1008.77,360.0
2018-08-15 08:20,53.06914,-98.5841433333333,16.4,20.1,190,982.53,15.0,85,18.77,0.0,1008.76,360.0
2018-08-15 08:30,53.0691566666667,-98.5842833333333,17.0,21.7,189,982.34,14.9,85,18.76,0.0,1008.57,360.0
2018-08-15 08:40,53.0691666666667,-98.5842616666667,16.4,22.3,188,982.31,14.8,86,18.77,0.0,1008.54,360.0
2018-08-15 08:50,53.0691533333333,-98.5841366666667,15.3,19.8,189,982.27,14.9,87,18.77,0.0,1008.51,360.0
2018-08-15 09:00,53.0691566666667,-98.5841533333333,16.3,20.3,192,982.06,14.9,88,18.77,0.0,1008.29,90.0
2018-08-15 09:10,53.06916,-98.5841816666667,16.1,20.3,191,982.01,15.0,89,18.76,0.0,1008.24,90.0
2018-08-15 09:20,53.0691533333333,-98.5842166666667,15.8,20.0,189,981.96,15.0,89,18.77,0.0,1008.19,90.0
2018-08-15 09:30,53.0691483333333,-98.5841166666667,15.9,19.1,190,981.93,15.0,88,18.76,0.0,1008.16,90.0
2018-08-15 09:40,53.0691583333333,-98.5841083333333,16.2,20.1,191,981.87,15.1,86,18.76,0.0,1008.10,90.0
2018-08-15 09:50,53.06915,-98.58413,16.2,19.2,190,981.82,15.0,86,18.76,0.0,1008.06,90.0
2018-08-15 10:00,53.0691516666667,-98.5840683333333,15.9,19.3,190,981.83,15.1,86,18.75,0.0,1008.06,270.0
2018-08-15 10:10,53.06915,-98.5840366666667,15.4,18.6,188,981.70,15.0,88,18.75,0.0,1007.93,270.0
2018-08-15 10:20,53.06916,-98.583995,15.3,19.8,187,981.56,15.0,88,18.75,0.0,1007.80,270.0
2018-08-15 10:30,53.06916,-98.5840333333333,15.0,17.9,186,981.46,14.9,88,18.75,0.0,1007.70,270.0
2018-08-15 10:40,53.0691666666667,-98.5840433333333,15.6,18.5,188,981.37,14.9,87,18.75,0.0,1007.60,270.0
2018-08-15 10:50,53.0691566666667,-98.5840766666667,15.4,19.6,187,981.31,14.9,87,18.75,0.0,1007.54,270.0
2018-08-15 11:00,53.0691683333333,-98.5842,14.3,18.1,187,981.39,14.9,87,18.74,0.0,1007.62,296.6
2018-08-15 11:10,53.0691516666667,-98.5842066666667,14.1,17.9,188,981.36,14.9,87,18.74,0.0,1007.58,296.6
2018-08-15 11:20,53.0820833333333,-98.5791016666667,9.2,18.8,189,981.58,15.0,87,18.74,4.8,1007.80,296.6
2018-08-15 11:30,53.1076366666667,-98.5579766666667,7.8,21.5,163,981.70,15.9,82,18.61,10.3,1007.89,296.6
2018-08-15 11:40,53.1030533333333,-98.50632,21.2,25.2,165,981.18,15.7,85,18.39,11.3,1007.37,296.6
2018-08-15 11:50,53.0982666666667,-98.4546366666667,20.1,23.2,167,981.22,15.8,85,18.39,11.3,1007.40,296.6
2018-08-15 12:00,53.0937983333333,-98.4037183333333,20.6,24.8,165,981.24,16.2,83,18.48,11.1,1007.40,77.1
2018-08-15 12:10,53.0892616666667,-98.3534583333333,22.3,25.8,171,981.14,16.8,80,18.57,11.0,1007.28,77.1
2018-08-15 12:20,53.084015,-98.3034316666667,21.5,24.6,171,981.27,17.2,79,18.53,11.0,1007.39,77.1
2018-08-15 12:30,53.0791566666667,-98.2533,20.6,24.4,170,981.35,17.2,80,18.49,11.0,1007.48,77.1
2018-08-15 12:40,53.0756483333333,-98.2032616666667,19.5,23.1,169,981.55,17.1,82,18.24,10.9,1007.69,77.1
2018-08-15 12:50,53.07569,-98.1996583333333,15.7,20.5,201,981.52,17.0,80,17.98,0.8,1007.66,77.1
2018-08-15 13:00,53.0756833333333,-98.19953,14.1,17.1,200,981.63,17.0,83,17.93,0.0,1007.78,88.2
2018-08-15 13:10,53.0757183333333,-98.199575,13.7,16.8,202,981.67,17.0,82,17.92,0.0,1007.80,88.2
2018-08-15 13:20,53.075715,-98.1995733333333,13.7,16.8,207,981.71,17.1,81,17.90,0.0,1007.81,88.2
2018-08-15 13:30,53.0752616666667,-98.1995833333333,14.1,17.7,211,981.67,17.2,81,17.89,0.2,1007.77,88.2
2018-08-15 13:40,53.0710566666667,-98.1979616666667,16.5,19.4,210,981.64,17.3,78,17.89,1.6,1007.72,88.2
2018-08-15 13:50,53.064205,-98.1934633333333,17.6,20.3,203,981.61,17.4,79,17.88,2.7,1007.67,88.2
2018-08-15 14:00,53.0569466666667,-98.18927,17.3,19.6,201,981.61,17.5,79,17.88,2.8,1007.64,92.8
2018-08-15 14:10,53.0500516666667,-98.1849133333333,17.3,19.9,194,981.54,17.4,80,17.90,2.7,1007.56,92.8
2018-08-15 14:20,53.0247583333333,-98.194095,24.4,28.5,198,980.54,17.4,79,17.94,9.3,1006.53,92.8
2018-08-15 14:30,53.00163,-98.2030183333333,23.8,28.9,198,980.52,17.4,77,17.89,8.5,1006.52,92.8
2018-08-15 14:40,52.9726433333333,-98.2150266666667,27.2,29.9,196,979.94,17.5,78,17.83,10.8,1005.93,92.8
2018-08-15 14:50,52.943235,-98.223435,28.0,30.6,194,979.81,17.6,76,17.92,10.7,1005.78,92.8
2018-08-15 15:00,52.914055,-98.23485,27.4,30.3,196,979.75,17.7,76,18.19,10.8,1005.72,150.4
2018-08-15 15:10,52.9036483333333,-98.2417916666667,19.8,28.5,193,980.66,17.6,77,18.50,4.0,1006.65,150.4
2018-08-15 15:20,52.8967166666667,-98.2471,18.5,20.8,196,980.77,17.6,78,18.60,2.7,1006.76,150.4
2018-08-15 15:30,52.8897466666667,-98.25137,18.8,20.8,191,980.65,17.6,79,18.65,2.7,1006.63,150.4
2018-08-15 15:40,52.8822483333333,-98.2535683333333,19.1,22.0,188,980.59,17.7,80,18.71,2.7,1006.56,150.4
2018-08-15 15:50,52.87324,-98.2522066666667,19.9,23.8,184,980.48,17.8,80,18.72,3.3,1006.44,150.4
2018-08-15 16:00,52.8667183333333,-98.2511283333333,20.3,24.9,179,980.27,17.8,83,18.71,2.4,1006.23,188.5
2018-08-15 16:10,52.86673,-98.2510166666667,18.5,21.0,180,980.43,17.9,82,18.68,0.0,1006.38,188.5
2018-08-15 16:20,52.8667633333333,-98.251065,17.5,21.2,179,980.50,18.1,81,18.66,0.0,1006.44,188.5
2018-08-15 16:30,52.8668066666667,-98.2511383333333,17.5,20.8,180,980.51,18.3,80,18.69,0.0,1006.44,188.5
2018-08-15 16:40,52.8668233333333,-98.2509933333333,16.6,20.3,181,980.58,18.5,81,18.69,0.0,1006.51,188.5
2018-08-15 16:50,52.8665333333333,-98.25369,16.0,19.8,181,980.73,18.5,84,18.70,0.6,1006.65,188.5
2018-08-15 17:00,52.8578633333333,-98.2958683333333,21.8,25.8,204,980.41,18.6,82,18.74,9.7,1006.33,197.9
2018-08-15 17:10,52.8489133333333,-98.3440716666667,22.0,25.2,209,980.29,18.8,82,18.79,11.0,1006.19,197.9
2018-08-15 17:20,52.8404666666667,-98.3926016666667,20.0,22.3,208,980.44,19.0,81,18.77,11.0,1006.34,197.9
2018-08-15 17:30,52.83159,-98.4389283333333,19.4,22.5,202,980.49,19.2,80,18.73,10.6,1006.37,197.9
2018-08-15 17:40,52.830985,-98.4521416666667,14.9,16.7,177,980.73,19.3,82,18.70,2.9,1006.62,197.9
2018-08-15 17:50,52.8282866666667,-98.4628366666667,16.1,18.7,176,980.50,19.6,80,18.71,2.5,1006.36,197.9
2018-08-15 18:00,52.8254183333333,-98.473755,17.0,18.8,174,980.37,19.8,79,18.72,2.6,1006.22,238.5
2018-08-15 18:10,52.8232466666667,-98.486455,16.8,18.7,173,980.29,19.8,80,18.72,2.9,1006.12,238.5
2018-08-15 18:20,52.8211833333333,-98.4948283333333,16.8,19.4,171,979.90,19.9,81,18.68,2.0,1005.71,238.5
2018-08-15 18:30,52.821215,-98.49462,15.3,17.7,167,979.68,20.0,82,18.64,0.0,1005.48,238.5
2018-08-15 18:40,52.8211783333333,-98.4948016666667,14.6,17.1,169,979.74,19.9,83,18.65,0.0,1005.54,238.5
2018-08-15 18:50,52.8058766666667,-98.5114733333333,18.2,22.5,180,979.36,20.0,83,18.65,6.6,1005.14,238.5
2018-08-15 19:00,52.781215,-98.5402216666667,21.0,22.7,182,978.94,20.3,81,18.70,10.9,1004.68,244.0
2018-08-15 19:10,52.7571533333333,-98.570185,21.4,22.8,184,978.76,20.7,80,18.94,10.8,1004.47,244.0
2018-08-15 19:20,52.7326416666667,-98.5993733333333,20.6,22.7,186,978.78,21.0,78,19.06,10.9,1004.47,244.0
2018-08-15 19:30,52.7082683333333,-98.628585,21.9,24.5,195,978.62,22.5,61,19.13,10.8,1004.23,244.0
2018-08-15 19:40,52.6840733333333,-98.656565,23.2,26.0,202,978.42,24.4,51,19.45,10.6,1003.94,244.0
2018-08-15 19:50,52.6780316666667,-98.6647166666667,17.7,20.1,196,978.75,25.8,43,19.38,2.8,1004.21,244.0
2018-08-15 20:00,52.6707766666667,-98.6736266666667,17.4,21.0,198,978.76,26.2,43,19.31,3.3,1004.19,230.9
2018-08-15 20:10,52.662995,-98.6816466666667,16.7,21.8,204,978.76,26.1,44,19.29,3.3,1004.20,230.9
2018-08-15 20:20,52.6547766666667,-98.69075,18.3,24.0,211,978.61,27.3,35,19.22,3.6,1003.99,230.9
2018-08-15 20:30,52.6545083333333,-98.6906216666667,15.0,21.4,210,978.91,28.0,33,19.21,0.1,1004.27,230.9
2018-08-15 20:40,52.6544716666667,-98.6905483333333,16.0,24.4,209,978.70,28.2,33,19.16,0.0,1004.04,230.9
2018-08-15 20:50,52.6544916666667,-98.6905533333333,16.6,22.0,207,978.62,28.3,33,19.16,0.0,1003.94,230.9
2018-08-15 21:00,52.6478033333333,-98.7001933333333,20.2,29.7,209,978.22,28.5,32,19.17,3.2,1003.51,217.8
2018-08-15 21:10,52.6436116666667,-98.7047533333333,17.5,25.7,203,978.43,28.8,32,19.16,1.8,1003.69,217.8
2018-08-15 21:20,52.6436216666667,-98.7048233333333,15.0,21.9,207,978.57,29.1,31,19.14,0.0,1003.76,217.8
2018-08-15 21:30,52.6435566666667,-98.70461,13.3,19.4,217,978.72,29.1,32,19.12,0.1,1003.83,217.8
2018-08-15 21:40,52.6435883333333,-98.7046766666667,15.2,20.0,213,978.60,29.3,31,19.12,0.0,1003.64,217.8
2018-08-15 21:50,52.6435666666667,-98.7046883333333,14.5,18.8,215,978.60,29.4,31,19.15,0.0,1003.63,217.8
2018-08-15 22:00,52.6435716666667,-98.7046416666667,15.0,20.9,215,978.54,29.4,31,19.16,0.0,1003.57,216.0
2018-08-15 22:10,52.6435033333333,-98.704555,15.0,21.2,229,978.49,29.6,29,19.17,0.0,1003.46,216.0
2018-08-15 22:20,52.6427983333333,-98.6995366666667,15.7,20.4,214,978.40,29.7,29,19.20,1.1,1003.33,216.0
2018-08-15 22:30,52.6482566666667,-98.6521283333333,8.0,16.6,179,978.86,29.5,32,19.15,10.5,1003.81,216.0
2018-08-15 22:40,52.6463916666667,-98.60002,12.3,16.1,173,978.77,28.1,36,19.19,11.4,1003.77,216.0
2018-08-15 22:50,52.6442983333333,-98.547715,16.7,19.2,164,978.67,26.8,43,19.36,11.5,1003.71,216.0
2018-08-15 23:00,52.6423583333333,-98.4950483333333,16.4,18.1,160,978.75,25.6,49,19.44,11.5,1003.83,104.6
2018-08-15 23:10,52.63968,-98.442805,15.6,18.0,160,978.81,25.1,52,19.37,11.5,1003.90,104.6
2018-08-15 23:20,52.6381983333333,-98.390645,14.1,17.3,156,978.91,24.5,55,19.28,11.4,1004.02,104.6
2018-08-15 23:30,52.6388916666667,-98.3699616666667,11.4,15.9,184,978.99,24.0,58,19.30,4.5,1004.13,104.6
